Weather History for Lethbridge Airport, AB

Change the Weather History Date:

Thursday, August 15, 2013

  Actual Average Record
Temperature  
Mean Temperature 66 °F -  
Max Temperature 82 °F 72 °F 89 °F (2003)
Min Temperature 51 °F 46 °F 37 °F (2012)
Cooling Degree Days 2    
Growing Degree Days 16 (Base 50)    
Moisture  
Dew Point 51 °F    
Average Humidity 60    
Maximum Humidity 88    
Minimum Humidity 22    
Precipitation  
Precipitation 0.00 in 0.06 in - ()
Sea Level Pressure  
Sea Level Pressure 29.89 in    
Wind  
Wind Speed 8 mph ()    
Max Wind Speed 16 mph    
Max Gust Speed 28 mph    
Visibility 13.4 miles    
Events      
Averages and records for this station are not official NWS values.
T = Trace of Precipitation, MM = Missing Value Source: Averaged Metar Reports

Daily Weather History Graph

Daily Weather History Graph

Search for Another Location

Airport:

Trip Planner

Search our weather history database for the weather conditions in past years. The results will help you decide how hot, cold, wet, or windy it might be!

Date:

Astronomy

Aug. 15, 2013 Rise Set
Actual Time 6:22 AM MDT 8:47 PM MDT
Civil Twilight 5:46 AM MDT 9:23 PM MDT
Nautical Twilight 5:01 AM MDT 10:07 PM MDT
Astronomical Twilight 4:09 AM MDT 10:59 PM MDT
Moon 4:19 PM MDT (8/15) 12:26 AM MDT (8/15)
Length of Visible Light 15h 36m
Length of Day
14h 25m
Waxing Gibbous, 65% of the Moon is Illuminated
Aug 15
Waxing Gibbous
Aug 20
Full
Aug 28
Last Quarter
Sep 5
New
Sep 12
First Quarter

Hourly Weather History & Observations

Time (MDT) Temp. Heat Index Dew Point Humidity Pressure Visibility Wind Dir Wind Speed Gust Speed Precip Events Conditions
12:00 AM 61 °F - 53 °F 67% 29.68 in - WSW 6.9 mph - -  
12:00 AM 59.0 °F - 51.8 °F 77% 29.93 in 9.0 mi SW 13.8 mph - N/A   Clear
1:00 AM 57.2 °F - 50.0 °F 77% 29.92 in 9.0 mi SSW 9.2 mph - N/A   Clear
2:00 AM 53.6 °F - 50.0 °F 88% 29.92 in 9.0 mi WNW 3.5 mph - N/A   Clear
3:00 AM 51.8 °F - 48.2 °F 88% 29.91 in 9.0 mi WSW 6.9 mph - N/A   Clear
4:00 AM 53.6 °F - 48.2 °F 82% 29.91 in 9.0 mi SSW 2.3 mph - N/A   Clear
4:56 AM 53.6 °F - 48.2 °F 82% 29.91 in 9.0 mi WSW 13.8 mph - N/A   Clear
5:00 AM 53.6 °F - 48.2 °F 82% 29.91 in 9.0 mi WSW 15.0 mph - N/A   Clear
6:00 AM 51.8 °F - 48.2 °F 88% 29.92 in 20.0 mi South 6.9 mph - N/A   Partly Cloudy
7:00 AM 57.2 °F - 48.2 °F 72% 29.91 in 20.0 mi WSW 15.0 mph - N/A   Overcast
8:00 AM 60.8 °F - 50.0 °F 68% 29.91 in 20.0 mi SSW 5.8 mph - N/A   Overcast
9:00 AM 68.0 °F - 50.0 °F 52% 29.93 in 20.0 mi SSW 6.9 mph - N/A   Overcast
10:00 AM 75.2 °F - 50.0 °F 41% 29.92 in 20.0 mi South 5.8 mph - N/A   Overcast
11:00 AM 80.6 °F - 51.8 °F 37% 29.90 in 30.0 mi WSW 2.3 mph - N/A   Mostly Cloudy
12:00 PM 84.2 °F - 50.0 °F 30% 29.89 in 25.0 mi Variable 2.3 mph - N/A   Mostly Cloudy
1:00 PM 86.0 °F - 51.8 °F 31% 29.88 in 25.0 mi West 8.1 mph - N/A   Overcast
2:00 PM 87.8 °F - 48.2 °F 25% 29.88 in 25.0 mi West 16.1 mph 27.6 mph N/A   Overcast
3:00 PM 87.8 °F - 44.6 °F 22% 29.88 in 25.0 mi West 16.1 mph 23.0 mph N/A   Mostly Cloudy
4:00 PM 82.4 °F - 50.0 °F 32% 29.89 in 30.0 mi WSW 9.2 mph - N/A   Overcast
5:00 PM 86.0 °F - 46.4 °F 25% 29.88 in 30.0 mi WSW 8.1 mph - N/A   Mostly Cloudy
6:00 PM 56 °F - 48 °F 66% 29.88 in - ENE 13.8 mph - -  
6:00 PM 82.4 °F 82.0 °F 57.2 °F 42% 29.88 in 30.0 mi West 6.9 mph - N/A   Mostly Cloudy
7:00 PM 80.6 °F 82.7 °F 66.2 °F 61% 29.87 in 30.0 mi WSW 3.5 mph - N/A   Mostly Cloudy
8:00 PM 78.8 °F - 55.4 °F 44% 29.87 in 30.0 mi West 3.5 mph - N/A   Mostly Cloudy
9:00 PM 69.8 °F - 59.0 °F 68% 29.88 in 30.0 mi SW 6.9 mph - N/A   Scattered Clouds
10:00 PM 66.2 °F - 59.0 °F 78% 29.89 in 15.0 mi South 11.5 mph - N/A   Mostly Cloudy
11:00 PM 62.6 °F - 57.2 °F 82% 29.88 in 9.0 mi SSW 10.4 mph 17.3 mph N/A   Clear